Location: Mariposa
(37.4849°N, 119.9663°W)
Time: 01:27:12
(UTC+00:00)

Cosmos 2208 Rocket - Pass Details

Date: 03 August 2024
Orbit: 751 x 803 km, 74.0° (Epoch: 08 September)

Event Time Altitude Azimuth Distance (km) Brightness Sun altitude
Exits shadow 12:17:39 10° 221° (SW) 2,250 5.8 -9.5°
Maximum altitude 12:22:29 44° 292° (WNW) 1,036 4.4 -8.6°
Drops below altitude 10° 12:27:25 10° 5° (N) 2,280 7.0 -7.8°
Sets 12:29:54 0° 12° (NNE) 3,211 7.9 -7.3°
